Weather History for EGKB - May, 2013

Change the Weather History Date:

Thursday, May 16, 2013

  Actual Average Record
Temperature  
Mean Temperature 50 °F -  
Max Temperature 59 °F 59 °F 75 °F (1998)
Min Temperature 41 °F 49 °F 41 °F (2012)
Degree Days  
Heating Degree Days 15    
Moisture  
Dew Point 40 °F    
Average Humidity 63    
Maximum Humidity 100    
Minimum Humidity 41    
Precipitation  
Precipitation 0.00 in - - ()
Sea Level Pressure  
Sea Level Pressure 29.51 in    
Wind  
Wind Speed 4 mph ()    
Max Wind Speed 12 mph    
Max Gust Speed -    
Visibility 6.0 miles    
Events Fog    
Averages and records for this station are not official NWS values.
T = Trace of Precipitation, MM = Missing Value Source: Averaged Metar Reports

Daily Weather History Graph

Daily Weather History Graph

Search for Another Location

Airport or City:

Trip Planner

Search our weather history database for the weather conditions in past years. The results will help you decide how hot, cold, wet, or windy it might be!

Date:

Astronomy

May. 16, 2013 Rise Set
Actual Time 5:07 AM BST 8:46 PM BST
Civil Twilight 4:25 AM BST 9:27 PM BST
Nautical Twilight 3:29 AM BST 10:24 PM BST
Astronomical Twilight 2:04 AM BST 11:52 PM BST
Moon 10:37 AM BST (5/16) 12:48 AM BST (5/16)
Length of Visible Light 17h 02m
Length of Day
15h 39m
Waxing Crescent, 33% of the Moon is Illuminated
May 16
Waxing Crescent
May 18
First Quarter
May 25
Full
May 31
Last Quarter
Jun 8
New

Hourly Weather History & Observations

Time (BST) Temp. Dew Point Humidity Pressure Visibility Wind Dir Wind Speed Gust Speed Precip Events Conditions
7:20 AM 42.8 °F 42.8 °F 100% 29.53 in 6.2 mi South 1.2 mph - N/A   Scattered Clouds
7:50 AM 41.0 °F 41.0 °F 100% 29.53 in 0.6 mi SSE 2.3 mph - N/A Fog Fog
8:20 AM 44.6 °F 42.8 °F 93% 29.53 in 5.6 mi SSW 1.2 mph - N/A   Scattered Clouds
8:50 AM 46.4 °F 46.4 °F 100% 29.53 in 6.2 mi SSE 2.3 mph - N/A   Scattered Clouds
9:20 AM 50.0 °F 48.2 °F 94% 29.53 in 6.2 mi South 3.5 mph - N/A   Scattered Clouds
9:50 AM 50.0 °F 46.4 °F 87% 29.53 in 6.2 mi South 4.6 mph - N/A   Scattered Clouds
10:20 AM 51.8 °F 42.8 °F 71% 29.53 in 6.2 mi South 5.8 mph - N/A   Scattered Clouds
10:50 AM 53.6 °F 39.2 °F 58% 29.53 in 6.2 mi Variable 4.6 mph - N/A   Scattered Clouds
11:20 AM 55.4 °F 39.2 °F 54% 29.50 in 6.2 mi Variable 4.6 mph - N/A   Scattered Clouds
11:50 AM 53.6 °F 39.2 °F 58% 29.50 in 6.2 mi SSE 4.6 mph - N/A   Scattered Clouds
12:20 PM 53.6 °F 37.4 °F 54% 29.50 in 6.2 mi SE 8.1 mph - N/A   Scattered Clouds
12:50 PM 55.4 °F 39.2 °F 54% 29.50 in 6.2 mi SE 9.2 mph - N/A   Scattered Clouds
1:20 PM 53.6 °F 37.4 °F 54% 29.50 in 6.2 mi South 6.9 mph - N/A   Scattered Clouds
1:50 PM 55.4 °F 37.4 °F 51% 29.50 in 6.2 mi South 4.6 mph - N/A   Scattered Clouds
2:20 PM 57.2 °F 37.4 °F 48% 29.50 in 6.2 mi SE 8.1 mph - N/A   Scattered Clouds
2:50 PM 55.4 °F 35.6 °F 47% 29.50 in 6.2 mi SSE 5.8 mph - N/A   Scattered Clouds
3:20 PM 59.0 °F 37.4 °F 45% 29.50 in 6.2 mi SSW 10.4 mph - N/A   Scattered Clouds
3:50 PM 59.0 °F 37.4 °F 45% 29.50 in 6.2 mi South 8.1 mph - N/A   Scattered Clouds
4:20 PM 59.0 °F 37.4 °F 45% 29.50 in 6.2 mi South 10.4 mph - N/A   Scattered Clouds
4:50 PM 57.2 °F 37.4 °F 48% 29.47 in 6.2 mi SSE 9.2 mph - N/A   Scattered Clouds
5:20 PM 57.2 °F 35.6 °F 44% 29.47 in 6.2 mi Variable 5.8 mph - N/A   Scattered Clouds
5:50 PM 57.2 °F 33.8 °F 41% 29.47 in 6.2 mi SSE 4.6 mph - N/A   Scattered Clouds
6:20 PM 57.2 °F 35.6 °F 44% 29.50 in 6.2 mi South 6.9 mph - N/A   Scattered Clouds
6:50 PM 53.6 °F 41.0 °F 62% 29.50 in 6.2 mi SSE 1.2 mph - N/A   Partly Cloudy
7:20 PM 53.6 °F 42.8 °F 67% 29.50 in 6.2 mi East 8.1 mph - N/A   Partly Cloudy
7:50 PM 51.8 °F 41.0 °F 67% 29.50 in 6.2 mi East 6.9 mph - N/A   Partly Cloudy
8:20 PM 51.8 °F 41.0 °F 67% 29.53 in - SE 11.5 mph - N/A   Clear